Regional Weather Roundup
Issued by NWS

Home | Current Version | Previous Version | Graphics & Text | Print | Product List | Glossary On
Versions: 1 2 3 4 5 6 7 8 9 10 11 12 13 14 15 16 17 18 19 20 21 22 23 24 25 26 27 28 29 30 31 32 33 34 35 36 37 38 39 40 41 42 43 44 45 46 47 48 49 50
000
ASUS45 KSLC 290510
RWRUT

UTAH REGIONAL WEATHER ROUNDUP
NATIONAL WEATHER SERVICE SALT LAKE CITY UT
1100 PM MDT SAT MAY 28 2016

UTZ001>011-023>025-290600-

NORTHERN UTAH

CITY           SKY/WX    TMP DP  RH WIND       PRES   REMARKS
BRIGHAM CITY     N/A     59  41  51 CALM      30.08S
HILL AFB       PTCLDY    57  37  46 E10       30.09R
LOGAN          CLEAR     55  41  59 S5        30.09R
OGDEN          PTCLDY    58  39  49 S9        30.07R
PROVO AIRPORT  CLOUDY    63  43  48 NE5       30.09F
SALT LAKE CITY MOCLDY    65  40  39 SE6       30.07R
VERNAL         CLEAR     57  40  52 N9        30.13R
WENDOVER       CLOUDY    64  43  45 NE5       30.05R
HEBER CITY     MOCLDY    54  41  62 CALM      30.13R
WEST JORDAN    MOCLDY    61  39  44 SW6       30.10R

$$

UTZ012>022-026-027-290600-

SOUTHERN/CENTRAL UTAH

CITY           SKY/WX    TMP DP  RH WIND       PRES   REMARKS
BLANDING       PTCLDY    56  30  36 N9        30.18S
BRYCE CANYON   MOCLDY    48  35  60 NE8       30.22R
CEDAR CITY     MOCLDY    58  36  43 CALM      30.06R
DELTA          MOCLDY    61  41  48 NE5       30.07S
HANKSVILLE     PTCLDY    63  34  34 N8        30.07S
MILFORD        MOCLDY    61  36  39 NW10      30.05R
MOAB/CYNLANDS  MOCLDY    62  30  29 CALM      30.04R
PRICE          MOCLDY    58  37  45 N12       30.16R
ST GEORGE      MOCLDY    77  30  18 CALM      29.91R

$$

REGIONAL REPORTS     COLORADO/ARIZONA

CITY           SKY/WX    TMP DP  RH WIND       PRES   REMARKS
CRAIG, CO      CLEAR     45  38  76 SE5       30.20R
GRAND JUNCTION CLOUDY    58  35  42 NE6       30.10R
RIFLE          CLOUDY    51  36  56 SE10      30.16R
MONTROSE       CLOUDY    57  34  41 NE5       30.17R
CORTEZ         CLOUDY    50  32  50 E5        30.13R
PAGE, AZ       CLEAR     72  30  21 CALM      29.98R
GRAND CANYON   PTCLDY    45  26  47 CALM      30.15R
KINGMAN        CLEAR     70  27  20 MISG      29.95R
FLAGSTAFF      CLEAR     45  22  40 CALM      30.18R

$$

REGIONAL REPORTS    NEVADA/IDAHO/WYOMING

CITY           SKY/WX    TMP DP  RH WIND       PRES   REMARKS
LAS VEGAS, NV  CLEAR     81  24  12 SW6       29.80R
ELY            MOCLDY    52  41  66 N17       30.14R
ELKO           PTCLDY    59  42  53 CALM      30.07R
POCATELLO, ID  CLEAR     45  33  63 S7        30.10R
BURLEY         CLEAR     51  39  63 S3        30.06R
EVANSTON, WY   CLEAR     51  27  39 CALM      30.20R
ROCK SPRINGS   PTCLDY    49  33  54 SW9       30.18R
KEMMERER         N/A     43  32  65 NW8       30.21R

$$



USA.gov is the U.S. government's official web portal to all federal, state and local government web resources and services.